Location: Krasnoyarskiy Pitomnik
(51.1333°N, 71.6167°E)
Time: 08:38:31
(UTC+00:00)

Meteor 1-4 Rocket - Pass Details

Date: 22 October 2021
Orbit: 447 x 496 km, 81.2° (Epoch: 06 December)

Event Time Altitude Azimuth Distance (km) Brightness Sun altitude
Rises 13:12:23 0° 155° (SSE) 2,472 5.9 -11.0°
Reaches altitude 10° 13:14:51 10° 138° (SE) 1,595 4.8 -11.4°
Maximum altitude 13:17:23 19° 91° (E) 1,134 3.8 -11.8°
Enters shadow 13:17:39 19° 84° (E) 1,139 3.8 -11.8°
